Location: ?????????
(55.6553°N, 38.9075°E)
Time: 23:32:56
(UTC+00:00)

CZ-2C R/B - Pass Details

Date: 18 October 2019
Orbit: 502 x 569 km, 97.6° (Epoch: 20 November)

Event Time Altitude Azimuth Distance (km) Brightness Sun altitude
Rises 00:56:47 0° 14° (NNE) 2,641 6.8 -26.1°
Reaches altitude 10° 00:58:54 10° 13° (NNE) 1,742 5.8 -25.9°
Enters shadow 01:00:58 31° 11° (N) 909 4.1 -25.6°
